Probability
0 0 0 0 0 0 0 0 0 0 0 0 0 0 0 0 0 0 0 0 0 0 0 0 0 0 0 0 0 0 0 0 0 0 0 0 0 0 0 0 0 0 0 0 0 0 0 0 0
0 0 0 0 0 0 0 0 0 0 0 0 0 0 0 0 0 0 0 0 0 0 0 0 0 0 0 0 0 0 0 0 0 0 0 0 0 0 0 0 0 0 0 0 0 0 0 0 0
0 0 0 0 0 0 0 0 0 0 0 0 0 0 0 0 0 0 0 0 0 0 0 0 0 0 0 0 0 0 0 0 0 0 0 0 0 0 0 0 0 0 0 0 0 0 0 0 0
0 0 0 0 0 0 0 0 0 0 0 0 0 0 0 0 0 0 0 0 0 0 0 0 0 0 0 0 0 0 0 0 0 0 0 0 0 0 0 0 0 0 0 0 0 0 0 0 0
0 0 0 0 0 0 0 0 0 0 0 0 0 0 0 0 0 0 0 0 0 0 0 0 0 0 0 0 0 0 0 0 0 0 0 0 0 0 0 0 0 0 0 0 0 0 0 0 0
0 0 0 0 0 0 0 0 0 0 0 0 0 0 0 0 0 0 0 0 0 0 0 0 0 0 0 0 0 0 0 0 0 0 0 0 0 0 0 0 0 0 0 0 0 0 0 0 0
0 0 0 0 0 0 0 0 0 0 0 0 0 0 0 0 0 0 0 0 0 0 0 0 0 0 0 0 0 0 0 0 0 0 0 0 0 0 0 0 0 0 0 0 0 0 0 0 0
0 0 0 0 0 0 0 0 0 0 0 0 0 0 0 0 0 0 0 0 0 0 0 0 0 0 0 0 0 0 0 0 0 0 0 0 0 0 0 0 0 0 0 0 0 0 0 0 0
0 0 0 0 0 0 0 0 0 0 0 0 0 0 0 0 0 0 0 0 0 0 0 0 0 0 0 0 0 0 0 0 0 0 0 0 0 0 0 0 0 0 0 0 0 0 0 0 0
0 0 0 0 0 0 0 0 0 0 0 0 0 0 0 0 0 0 0 0 0 0 0 0 0 0 0 0 0 0 0 0 0 0 0 0 0 0 0 0 0 0 0 0 0 0 0 0 0
0 0 0 0 0 0 0 0 0 0 0 0 0 0 0 0 0 0 0 0 0 0 0 0 0 0 0 0 0 0 0 0 0 0 0 0 0 0 0 0 0 0 0 0 0 0 0 0 0
0 0 0 0 0 0 0 0 0 0 0 0 0 0 0 0 0 0 0 0 0 0 0 0 0 0 0 0 0 0 0 0 0 0 0 0 0 0 0 0 0 0 0 0 0 0 0 0 0
0 0 0 0 0 0 0 0 0 0 0 0 0 0 0 0 0 0 0 0 0 0 0 0 0 0 0 0 0 0 1 1 1 1 0 0 0 0 0 0 0 0 0 0 0 0 0 0 0
0 0 0 0 0 0 0 0 0 0 0 0 0 0 0 0 0 0 0 0 0 0 0 0 0 0 0 1 1 1 1 2 2 2 1 0 0 0 0 0 0 0 0 0 0 0 0 0 0
0 0 0 0 0 0 0 0 0 0 0 0 0 0 0 0 0 0 0 0 0 0 0 0 0 0 1 2 2 2 3 4 3 3 2 1 0 0 0 0 0 0 0 0 0 0 0 0 0
0 0 0 0 0 0 0 0 0 0 0 0 0 0 0 0 0 0 0 0 0 0 0 0 0 0 2 3 3 3 5 5 4 3 3 1 0 0 0 0 0 0 0 0 0 0 0 0 0
0 0 0 0 0 0 0 0 0 0 0 0 0 0 0 0 0 0 0 0 0 0 0 0 1 2 2 3 3 3 5 6 5 4 3 2 2 1 1 0 0 0 0 0 0 0 0 0 0
0 0 0 0 0 0 0 0 0 0 0 0 0 0 0 0 0 0 0 0 0 0 0 0 2 3 3 3 3 4 5 5 4 4 3 3 3 2 1 0 0 0 0 0 0 0 0 0 0
0 0 0 0 0 0 0 0 0 0 0 0 0 0 0 0 0 0 0 0 0 0 0 0 1 2 3 3 4 5 4 4 3 3 2 2 2 2 1 0 0 0 0 0 0 0 0 0 0
0 0 0 0 0 0 0 0 0 0 0 0 0 0 0 0 0 0 0 0 0 0 0 0 0 1 2 2 2 2 2 1 1 1 1 0 1 1 1 0 0 0 0 0 0 0 0 0 0
0 0 0 0 0 0 0 0 0 0 0 0 0 0 0 0 0 0 0 0 0 0 0 0 0 0 0 0 0 0 0 0 0 0 0 0 0 0 0 0 0 0 0 0 0 0 0 0 0
0 0 0 0 0 0 0 0 0 0 0 0 0 0 0 0 0 0 0 0 0 0 0 0 0 0 0 0 0 0 0 0 0 0 0 0 0 0 0 0 0 0 0 0 0 0 0 0 0
0 0 0 0 0 0 0 0 0 0 0 0 0 0 0 0 0 0 0 0 0 0 0 0 0 0 0 0 0 0 0 0 0 0 0 0 0 0 0 0 0 0 0 0 0 0 0 0 0
0 0 0 0 0 0 0 0 0 0 0 0 0 0 0 0 0 0 0 0 0 0 0 0 0 0 0 0 0 0 0 0 0 0 0 0 0 0 0 0 0 0 0 0 0 0 0 0 0
0 0 0 0 0 0 0 0 0 0 0 0 0 0 0 0 0 0 0 0 0 0 0 0 0 0 0 0 0 0 0 0 0 0 0 0 0 0 0 0 0 0 0 0 0 0 0 0 0
0 0 0 0 0 0 0 0 0 0 0 0 0 0 0 0 0 0 0 0 0 0 0 0 0 0 0 0 0 0 0 0 0 0 0 0 0 0 0 0 0 0 0 0 0 0 0 0 0
0 0 0 0 0 0 0 0 0 0 0 0 0 0 0 0 0 0 0 0 0 0 0 0 0 0 0 0 0 0 0 0 0 0 0 0 0 0 0 0 0 0 0 0 0 0 0 0 0
0 0 0 0 0 0 0 0 0 0 0 0 0 0 0 0 0 0 0 0 0 0 0 0 0 0 0 0 0 0 0 0 0 0 0 0 0 0 0 0 0 0 0 0 0 0 0 0 0
0 0 0 0 0 0 0 0 0 0 0 0 0 0 0 0 0 0 0 0 0 0 0 0 0 0 0 0 0 0 0 0 0 0 0 0 0 0 0 0 0 0 0 0 0 0 0 0 0
0 0 0 0 0 0 0 0 0 0 0 0 0 0 0 0 0 0 0 0 0 0 0 0 0 0 0 0 0 0 0 0 0 0 0 0 0 0 0 0 0 0 0 0 0 0 0 0 0
Wind_Speed
9 8 5 3 3 4 3 5 5 5 5 5 6 5 7 8 6 6 5 10 14 15 14 12 12 14 13 13 12 12 12 12 13 13 13 13 14 14 14 14 15 18 19 20 19 19 19 19 18
7 5 3 3 4 2 5 6 6 5 7 5 4 1 2 7 7 8 6 10 14 15 14 12 13 14 14 13 12 12 12 12 13 13 13 13 13 14 14 14 15 18 19 19 19 19 19 18 18
6 5 3 3 3 3 5 6 7 8 6 3 3 1 3 6 8 7 7 11 13 13 12 14 14 14 14 13 13 12 12 13 13 13 13 14 14 14 14 15 16 18 19 19 19 18 18 17 16
4 3 4 4 3 6 6 5 10 8 4 1 1 3 5 5 4 7 9 10 12 11 13 14 14 14 14 13 13 12 12 13 13 13 13 14 14 14 14 15 17 18 18 18 18 18 17 16 16
3 3 4 4 1 6 5 4 7 7 6 5 2 1 7 4 6 8 8 9 10 10 12 13 13 13 13 13 13 13 13 13 13 13 14 14 14 14 15 16 17 18 18 17 18 17 17 16 16
3 3 3 4 2 6 5 3 3 5 5 6 2 2 6 6 7 7 7 8 9 10 12 12 12 13 13 13 12 13 13 13 13 14 14 14 14 14 15 16 17 17 17 18 17 17 16 16 16
3 3 6 5 2 3 6 4 3 4 4 6 3 1 7 6 7 7 7 7 9 10 11 10 9 11 11 12 12 12 12 12 13 14 14 13 13 14 14 15 16 17 17 17 17 17 17 16 16
3 3 5 6 2 2 7 5 2 2 2 4 1 2 5 8 9 7 6 5 7 9 9 10 10 9 9 9 11 12 12 12 13 13 13 13 13 13 13 13 15 17 17 17 17 17 16 16 15
3 3 5 5 2 1 8 5 3 3 3 4 2 4 5 13 10 7 5 4 5 7 7 9 10 10 10 9 11 11 11 12 13 12 14 12 8 7 8 11 14 16 17 17 17 17 16 14 13
3 3 7 4 3 3 6 5 7 3 4 5 4 5 4 10 10 9 9 9 8 8 8 7 9 9 9 9 9 7 8 9 8 8 9 6 6 6 9 12 13 15 15 16 16 14 11 8 5
4 4 4 2 6 5 2 3 4 5 6 8 10 12 10 9 9 10 11 10 9 9 8 7 8 8 8 6 8 6 5 6 7 9 7 6 6 7 6 5 7 8 9 6 8 6 4 5 4
3 3 3 4 4 2 1 1 3 6 3 4 4 9 13 12 13 13 13 11 10 9 10 8 8 8 8 7 7 7 6 6 6 7 7 7 6 6 6 5 6 5 3 4 4 4 6 6 7
5 1 2 3 2 1 3 3 4 6 7 5 5 8 11 12 11 10 9 9 10 11 11 10 9 8 8 7 6 7 7 7 7 7 7 8 7 7 7 5 5 5 4 4 5 5 6 6 6
2 1 3 4 4 3 2 5 5 7 6 6 8 8 9 11 11 10 10 10 11 11 11 11 10 9 8 7 6 6 7 7 7 8 9 9 7 7 7 6 5 5 5 5 5 6 6 5 5
1 1 4 6 6 3 2 7 8 10 6 6 7 8 9 10 10 11 11 12 11 10 10 10 11 9 9 8 8 6 6 7 7 8 10 10 8 8 7 7 6 5 6 7 7 7 6 6 6
3 3 4 6 7 5 3 8 6 3 7 7 7 8 10 11 11 10 11 11 10 9 10 11 9 10 10 8 8 5 6 7 7 7 9 11 10 10 8 8 7 7 7 7 7 7 7 6 6
5 5 7 5 6 6 6 7 2 3 2 5 7 8 8 9 11 11 11 11 11 11 11 11 11 11 10 9 7 6 6 7 6 7 8 10 11 11 9 8 7 9 8 7 8 7 7 8 7
5 7 7 6 7 6 6 9 8 4 6 8 8 8 8 9 10 10 12 11 11 11 11 12 12 11 9 7 6 5 6 6 6 7 8 11 11 12 10 8 10 10 9 8 8 9 7 7 8
4 5 5 1 5 4 7 10 10 9 8 9 9 9 10 10 10 10 12 12 11 11 11 13 13 13 10 8 9 8 8 7 6 6 9 11 12 13 12 10 11 11 10 11 12 10 11 8 8
4 5 6 5 3 2 6 12 11 11 12 12 11 11 10 10 9 10 11 12 13 13 12 12 13 13 12 10 9 6 6 5 6 5 7 10 12 13 12 14 13 13 11 12 11 13 8 6 8
5 6 7 7 2 5 4 10 11 12 16 14 11 10 10 10 10 8 9 11 12 13 13 12 12 12 12 10 6 4 4 4 5 7 8 10 11 13 14 15 14 14 14 14 15 17 12 11 9
6 5 6 5 4 5 4 7 5 6 7 9 9 9 10 10 10 8 7 8 10 12 10 11 10 10 10 11 9 10 10 11 12 8 8 8 11 12 14 16 16 16 14 15 17 17 9 14 12
2 4 2 1 3 6 5 7 8 7 8 8 9 10 10 9 6 5 5 6 7 9 9 9 9 9 9 10 11 11 11 9 6 6 8 9 9 11 13 15 16 16 14 16 17 15 11 11 12
8 4 3 1 2 7 7 9 10 8 10 8 10 9 6 4 2 1 2 3 2 4 6 7 8 8 8 9 10 11 11 9 7 7 8 8 7 8 11 13 14 15 14 15 16 17 15 13 12
6 5 2 3 4 9 6 9 10 5 3 4 4 2 2 1 1 1 2 2 2 4 5 5 6 7 7 8 9 9 10 9 10 8 8 8 7 8 12 11 12 13 14 14 15 15 14 13 12
9 9 10 8 7 6 3 11 8 2 2 1 1 4 4 3 2 2 2 2 3 4 5 5 6 6 6 7 8 8 8 7 7 8 7 9 8 9 9 11 11 12 14 14 15 13 14 12 12
9 9 6 3 3 5 8 8 4 2 2 5 7 6 4 3 3 4 3 3 4 4 5 6 6 6 6 7 7 8 8 8 8 7 7 7 7 7 10 11 12 11 13 14 15 12 14 12 12
4 6 5 6 6 8 10 10 9 6 11 10 6 4 3 2 2 3 3 3 3 4 4 5 5 6 6 7 7 6 8 8 8 7 8 7 7 8 10 11 11 11 12 12 13 11 12 13 12
6 5 6 6 7 7 7 10 3 2 3 3 1 0 1 1 1 2 3 3 3 3 4 5 5 6 6 7 7 7 7 7 8 8 8 7 7 8 10 11 11 11 12 11 12 12 13 15 12
9 12 11 7 7 5 5 12 3 6 6 5 3 2 1 1 1 1 2 3 3 4 4 5 6 7 7 7 7 8 8 7 8 9 8 7 8 8 9 9 10 11 11 11 13 14 14 15 16
Wind_Direction
289 263 258 266 253 239 93 88 88 85 87 50 48 17 5 39 35 98 147 138 127 127 133 140 134 129 123 115 108 101 96 93 91 89 88 87 85 84 84 85 87 89 87 84 81 79 77 76 76
290 286 266 245 258 259 107 115 118 103 82 77 67 357 316 85 84 109 140 129 129 130 139 141 136 134 129 121 112 105 100 97 95 93 92 91 89 87 86 86 89 91 89 87 84 82 80 78 77
270 263 259 250 268 12 74 112 118 89 95 134 153 261 12 77 111 128 132 133 131 134 139 135 140 138 133 125 118 112 107 103 100 98 96 94 92 89 87 88 91 92 91 89 87 84 82 80 76
268 234 244 261 298 62 55 100 112 115 116 275 198 146 93 45 61 111 132 140 136 136 133 140 143 141 138 131 125 119 113 109 106 103 100 98 96 92 89 91 92 93 92 91 89 86 84 80 75
233 254 244 267 311 83 73 69 119 144 162 173 236 131 109 93 83 114 143 145 138 136 131 145 146 144 142 138 133 127 120 115 112 109 106 103 101 98 96 95 95 95 95 94 92 89 86 81 75
250 259 258 253 119 99 111 118 149 173 155 128 177 263 101 124 136 146 151 146 142 136 132 145 147 148 147 144 139 133 128 123 119 116 113 109 106 103 101 100 100 99 99 98 96 92 89 83 75
259 261 275 290 68 126 121 136 184 191 162 149 173 201 118 145 142 144 148 154 144 134 135 146 155 155 152 149 144 139 134 129 125 121 114 109 106 104 101 103 104 104 103 101 99 96 91 84 76
303 269 261 272 277 133 127 141 176 217 136 83 84 313 130 146 133 139 146 159 142 140 147 155 162 163 161 156 151 145 140 134 128 122 114 108 106 103 101 103 108 108 107 105 103 99 93 84 74
287 270 261 256 261 115 129 152 124 20 84 112 102 64 74 125 129 136 147 160 152 155 162 162 165 167 166 164 159 150 143 137 132 129 130 127 122 116 107 109 112 112 111 109 107 103 96 84 69
216 237 253 301 4 47 134 172 147 163 199 177 157 117 122 133 148 162 174 180 181 178 177 171 170 169 168 167 158 159 153 150 149 150 156 150 132 120 114 109 112 114 114 115 115 113 105 88 66
220 239 273 4 43 30 106 197 171 185 214 207 192 168 162 164 173 182 189 189 189 184 182 180 176 171 170 163 162 166 161 165 162 167 173 136 120 122 121 117 112 117 123 120 121 99 72 66 62
262 258 359 35 55 12 302 214 218 215 229 68 53 149 160 176 188 194 194 192 187 188 189 187 180 175 173 168 170 169 167 171 169 174 167 145 142 145 147 148 151 157 139 132 104 90 83 76 68
248 235 93 79 111 310 334 271 250 243 231 143 103 124 168 185 197 202 197 192 186 191 189 188 186 182 178 176 178 175 173 176 173 171 170 163 157 158 158 159 159 154 136 128 115 108 101 92 82
277 223 162 167 184 185 239 264 246 246 238 183 157 171 191 195 199 198 198 198 195 192 190 184 189 188 183 182 183 180 177 175 175 172 176 173 166 163 160 154 157 147 141 131 122 119 108 96 91
334 264 223 202 198 181 216 266 233 233 224 205 193 197 210 211 201 201 201 201 199 193 188 184 187 192 191 189 187 184 180 177 177 176 178 178 172 168 162 157 155 147 138 130 123 116 110 108 100
211 227 237 199 174 143 187 263 257 213 194 208 219 221 214 213 207 205 204 200 198 190 189 189 184 192 197 194 190 185 182 182 182 177 178 182 177 169 162 161 161 149 142 138 136 135 129 120 113
200 229 233 186 167 159 205 256 269 92 158 233 244 241 229 215 208 206 204 201 196 193 189 190 187 191 196 194 190 188 184 186 186 180 180 183 180 174 168 166 161 152 148 147 148 144 141 132 121
204 219 233 210 165 181 221 256 273 222 197 225 240 245 241 230 219 206 202 202 196 194 192 192 190 190 191 189 188 192 192 192 189 187 185 182 182 178 171 166 162 158 155 154 155 147 139 133 129
311 325 299 33 117 184 241 259 261 261 246 237 236 237 238 237 229 211 200 193 191 192 194 193 193 190 188 191 193 195 200 194 192 191 187 184 182 180 175 169 166 167 168 166 160 148 142 141 133
261 279 293 306 121 189 266 269 263 250 248 240 240 242 243 246 239 221 201 187 189 193 196 198 198 193 193 199 196 193 188 192 193 188 191 189 185 182 180 174 173 174 170 163 162 153 146 161 168
239 236 252 267 245 214 265 281 244 238 232 236 237 241 248 249 249 239 209 193 188 193 196 200 201 199 196 192 181 175 174 178 190 198 199 195 189 185 182 180 176 178 176 174 173 170 162 172 190
242 239 235 271 311 278 220 285 269 265 243 222 227 237 246 250 247 239 218 200 193 196 191 195 198 200 195 188 190 190 197 203 204 197 196 191 190 189 186 183 181 181 183 180 180 181 176 170 180
185 53 75 224 253 274 244 265 265 238 245 225 219 230 239 242 240 236 215 197 189 182 181 188 194 201 198 194 195 200 210 213 200 186 189 194 195 196 192 187 185 186 187 185 185 186 183 181 183
123 96 77 129 234 259 208 230 266 211 220 214 214 220 229 229 219 154 87 89 118 145 167 178 190 203 201 199 200 205 212 211 206 199 195 196 197 201 200 193 191 190 190 189 190 190 191 192 190
144 144 169 227 224 246 184 220 252 199 179 169 179 198 184 149 142 125 123 137 154 158 167 176 189 205 202 202 205 208 212 211 215 210 200 194 197 204 204 198 197 195 195 192 190 191 195 196 194
193 183 175 193 221 265 215 233 253 133 100 92 228 238 232 208 195 189 190 183 179 179 176 182 197 208 205 205 209 209 209 212 220 216 204 202 204 205 197 201 203 199 195 193 192 194 198 197 199
173 219 215 222 265 291 260 260 278 112 242 253 253 252 250 225 202 196 196 189 176 179 187 190 197 207 212 210 208 211 211 214 219 218 208 203 199 192 191 199 203 203 199 196 193 197 198 198 201
209 174 162 190 204 240 262 250 243 229 226 230 246 261 266 221 193 176 177 175 169 175 186 190 199 207 212 212 212 215 216 217 217 215 214 206 197 189 188 195 201 203 201 198 196 196 196 198 201
181 207 196 186 182 189 257 260 197 135 148 156 174 26 50 96 166 176 178 175 172 175 186 198 205 210 213 214 214 217 219 217 217 219 217 206 198 191 189 192 196 200 201 199 200 200 196 199 200
203 201 194 192 220 207 231 261 111 87 86 91 81 60 36 354 216 172 165 166 185 203 211 214 213 216 218 214 213 216 216 215 217 220 215 204 201 195 190 188 194 199 201 201 202 202 200 200 200